Regional Weather Roundup
Issued by NWS Midland/Odessa, TX

Current Version | Previous Version | Text Only | Print | Product List | Glossary On
Versions: 1 2 3 4 5 6 7 8 9 10 11 12 13 14 15 16 17 18 19 20 21 22 23 24 25 26 27 28 29 30 31 32 33 34 35 36 37 38 39 40 41 42 43 44 45 46 47 48 49 50
000
ASUS44 KMAF 052010
RWRMAF
MIDLAND AREA WEATHER ROUNDUP
NATIONAL WEATHER SERVICE MIDLAND TX
200 PM CST FRI MAR 05 2021

...IN SOUTHWEST TEXAS AND SOUTHEAST NEW MEXICO...

CITY           SKY/WX    TMP DP  RH WIND       PRES   REMARKS
ALPINE         SUNNY     62  26  25 N17G30    30.27S
ANDREWS        CLOUDY    59  37  43 N24G31    30.20F
ARTESIA        PTSUNNY   63  34  34 NE18G29   30.26F
BIG SPRING     MOSUNNY   64  38  39 N31G40    30.13S
CARLSBAD       MOSUNNY   64  33  31 N21G30    30.23F
DRYDEN           N/A     73  31  21 N20G29    30.12F
FORT STOCKTON  MOSUNNY   67  34  29 N24G32    30.17F
GUAD PASS      SUNNY     58  25  28 NE35G40   30.24F
HOBBS          PTSUNNY   57  36  44 N26G37    30.23F
LAMESA         NOT AVBL
MARFA          SUNNY     63  22  20 N17G29    30.23F
MIDLAND AIRPK  CLOUDY    62  38  41 N21G32    30.16F HAZE
MIDLAND INTL   MOSUNNY   63  37  38 N26G35    30.16F BLWGDUST
ODESSA         CLOUDY    63  36  36 N23G32    30.17F HAZE
PECOS          MOSUNNY   68  33  27 N20G28    30.19F
PRESIDIO       FAIR      72  21  14 W5        30.18F
SEMINOLE       MOSUNNY   58  38  47 N23G35    30.25S
SNYDER         CLOUDY    60  39  47 N30       30.12F
WINK           CLOUDY    66  36  32 N29G35    30.18F
$$
...OTHER STATIONS IN TEXAS...

CITY           SKY/WX    TMP DP  RH WIND       PRES   REMARKS
ABILENE        CLOUDY    62  41  46 N26G40    30.06F
AMARILLO       CLOUDY    50  39  66 N18G29    30.23F
AUSTIN         MOSUNNY   80  34  19 W14G22    29.91F
BROWNSVILLE    CLOUDY    77  66  68 N6        29.92F
CORPUS CHRISTI PTSUNNY   85  56  37 NW13      29.91F
DALLAS FTW     MOSUNNY   70  43  37 NW13      29.91F
DEL RIO        SUNNY     81  34  18 NW25G36   30.01F
EL PASO        SUNNY     66  21  18 N8        30.21F
HOUSTON INT    CLOUDY    69  60  73 S6        29.91F
LUBBOCK        PTSUNNY   55  37  50 N30G39    30.19F
SAN ANGELO     SUNNY     71  39  31 N21G37    30.05F
SAN ANTONIO    MOSUNNY   80  29  15 NW14G24   29.94F
WACO           SUNNY     76  41  28 NW9G22    29.90F
WICHITA FALLS  PTSUNNY   59  40  49 N10       30.20F
$$
...OTHER LOCATIONS IN NEW MEXICO...

CITY           SKY/WX    TMP DP  RH WIND       PRES   REMARKS
ALAMOGORDO     SUNNY     66  25  20 S12       30.21F
ALBUQUERQUE    SUNNY     58  19  22 VRB6      30.30F
CANNON AFB     CLOUDY    51  37  58 N25G36    30.28R
CLOVIS         PTSUNNY   50  38  63 N26       30.28R
HOLLOMAN AFB   SUNNY     67  25  20 SW3       30.22F
ROSWELL        PTSUNNY   65  32  29 N20G30    30.24F
RUIDOSO        MOSUNNY   52  23  32 NE13      30.34S
SANTA FE       SUNNY     55  18  23 S8        30.31F
TRUTH OR CONSE SUNNY     63  22  20 NE14G20   30.27F
TUCUMCARI      CLOUDY    54  37  52 NE23G29   30.28F
$$




USA.gov is the U.S. government's official web portal to all federal, state and local government web resources and services.